Temp
59 59 59 59 58 58 59 58 57 57 57 57 57 57 57 57 57 56 56 56 56 56 57 58 59 59 65 68 72 83 74 77 82 86 83 82 79 79 77 81 82 78 78 80 80 81 81
59 59 59 58 58 58 58 57 57 57 57 57 57 56 56 56 56 56 56 56 55 56 57 58 59 59 63 63 86 88 85 84 85 85 84 84 82 86 79 81 79 83 79 78 79 78 79
59 59 59 58 58 58 57 57 57 57 57 56 57 56 56 56 55 55 55 55 55 55 57 59 60 66 68 72 86 87 85 83 84 83 81 85 86 82 82 74 80 80 71 73 75 77 75
59 59 59 58 58 57 57 57 57 57 56 56 56 56 55 55 55 55 54 54 55 56 57 59 61 67 66 84 88 84 85 83 84 85 84 84 86 81 80 80 75 72 72 63 70 73 74
59 59 59 58 58 57 57 57 57 57 56 56 56 56 55 54 54 54 54 54 55 57 58 60 63 67 69 76 77 83 83 79 81 82 82 83 82 77 75 70 66 68 61 63 65 74 73
58 58 58 58 58 57 57 57 57 56 56 55 55 55 54 54 54 53 53 54 61 60 67 72 76 68 75 72 78 80 83 81 77 77 74 74 73 68 69 67 57 62 63 66 63 71 75
56 56 57 58 58 58 58 57 57 56 55 55 55 54 54 54 54 53 55 68 67 64 71 69 70 71 73 79 81 78 81 77 76 72 64 70 63 59 67 70 73 72 70 65 68 74 68
55 55 56 56 56 57 58 57 57 56 55 55 55 54 54 54 53 54 57 64 66 66 59 74 73 75 78 80 70 74 81 70 68 61 69 66 60 67 70 71 71 73 66 62 68 72 68
54 54 55 55 55 55 56 57 56 56 55 55 54 54 53 53 53 57 67 67 75 72 59 69 73 72 73 76 70 70 76 73 67 65 64 62 64 68 67 67 67 70 64 60 60 67 69
53 53 54 54 54 54 54 54 55 56 55 55 54 54 53 52 55 64 65 72 74 70 53 61 65 71 73 74 65 75 76 71 68 65 67 62 65 64 65 66 70 61 70 67 65 62 53
52 52 53 53 53 53 53 53 54 54 55 55 54 53 53 53 54 63 67 71 71 65 34 66 66 80 75 67 67 67 76 71 65 65 63 58 60 62 62 64 65 61 67 66 65 62 62
52 52 52 52 52 52 53 53 53 53 54 54 54 53 53 59 60 66 70 68 64 45 32 59 66 63 63 66 67 69 68 73 74 65 64 62 70 67 65 64 65 66 63 63 64 61 50
51 52 52 52 52 52 52 52 52 52 53 54 54 53 52 58 56 65 65 61 44 32 62 58 59 63 62 61 62 63 61 60 57 52 53 57 59 62 66 59 64 63 57 47 46 47 47
51 51 52 52 52 52 52 52 52 52 52 52 53 52 55 58 63 65 60 51 31 49 55 66 63 62 57 63 61 61 60 57 66 64 55 51 45 58 64 63 59 58 59 51 41 44 48
51 51 51 51 51 51 51 52 51 52 52 52 52 56 57 60 62 61 53 35 37 51 64 62 62 55 56 61 61 59 59 59 64 66 56 54 52 61 64 65 64 60 54 63 53 54 50
51 50 50 51 50 51 51 51 51 52 52 52 49 53 55 62 63 56 47 38 49 62 65 67 54 58 52 57 54 56 56 63 63 67 67 62 47 59 59 63 64 59 66 52 53 43 42
50 50 49 50 50 50 50 51 51 51 51 52 45 47 59 64 60 50 35 42 52 64 67 61 58 58 59 57 56 55 57 62 65 62 64 63 56 52 57 54 56 55 54 56 58 54 46
50 50 50 50 50 50 50 50 50 51 51 48 42 36 59 59 44 46 36 49 54 60 66 62 64 62 59 61 56 56 57 59 65 63 55 62 57 45 51 62 62 63 59 58 49 47 52
49 49 50 50 50 50 50 50 50 50 51 45 37 43 58 56 33 33 46 49 54 56 60 60 59 62 65 60 53 58 60 64 63 60 58 59 52 44 46 53 58 54 58 61 58 53 50
49 49 49 49 49 49 49 50 50 50 51 47 37 32 45 47 47 43 41 44 48 58 57 63 61 62 60 57 62 57 56 57 61 62 51 57 55 50 44 51 54 48 55 57 54 43 48
49 49 49 49 48 48 48 49 49 50 50 46 37 34 45 33 34 41 43 47 46 49 58 62 58 58 56 52 55 55 55 53 57 50 55 55 47 54 53 56 57 54 55 55 52 52 45
48 48 48 48 48 48 48 49 49 49 49 41 34 35 44 43 46 44 42 38 44 51 55 54 54 58 59 54 56 52 53 51 49 52 52 55 46 52 45 52 53 52 56 56 55 56 54
48 48 48 48 48 48 48 48 48 48 47 38 41 43 34 34 41 40 40 43 45 50 56 61 59 57 56 59 65 65 62 59 58 50 50 50 48 45 39 50 48 38 47 54 56 58 56
48 48 48 48 48 48 48 48 48 48 47 39 39 41 34 28 37 41 45 45 46 49 50 59 61 57 63 71 69 65 61 59 59 55 58 50 49 48 41 44 29 52 61 58 57 59 61
48 47 47 48 48 48 48 48 48 48 48 40 40 37 34 26 34 43 46 48 49 50 50 56 62 66 67 62 51 45 45 47 51 56 55 57 52 40 35 37 49 52 55 54 53 54 62
47 47 47 47 47 47 47 47 47 47 47 42 39 43 36 30 31 37 41 48 44 45 47 53 65 66 62 54 42 31 32 39 40 46 57 56 56 42 39 36 32 52 60 64 63 46 63
46 47 47 46 47 47 47 47 47 47 46 42 38 42 38 30 38 39 32 41 50 48 45 50 55 55 60 47 34 37 41 49 38 39 41 43 44 37 37 36 45 59 61 63 42 48 64
45 46 46 46 46 46 46 46 46 46 46 43 37 42 38 33 37 43 43 39 50 49 41 51 48 50 49 40 39 39 45 47 45 48 43 41 38 37 40 35 32 62 58 49 57 63 64
45 45 46 46 46 46 46 46 46 46 46 45 34 41 44 36 37 47 47 51 57 54 41 50 50 50 53 45 46 49 44 49 47 39 51 40 48 42 45 44 58 61 59 63 64 60 61
MSLP
1026.36 1026.23 1026.01 1025.75 1025.48 1025.29 1024.99 1024.59 1024.30 1023.90 1023.59 1023.12 1022.69 1022.25 1021.70 1021.26 1020.69 1019.92 1019.10 1018.85 1018.55 1018.05 1017.63 1017.22 1016.97 1016.74 1015.97 1014.02 1011.48 1011.19 1011.30 1010.95 1010.86 1010.21 1009.63 1008.81 1008.11 1007.25 1006.10 1005.62 1005.72 1006.05 1006.88 1007.50 1007.85 1007.75 1007.46
1026.42 1026.25 1026.04 1025.85 1025.67 1025.45 1025.09 1024.79 1024.41 1024.02 1023.67 1023.08 1022.73 1022.15 1021.57 1021.27 1020.47 1019.48 1019.22 1018.84 1018.16 1017.72 1017.19 1016.97 1016.82 1016.82 1015.55 1012.52 1010.57 1010.54 1010.80 1010.61 1010.25 1009.80 1009.04 1008.71 1007.70 1006.78 1006.38 1005.70 1006.25 1005.95 1007.24 1008.02 1008.14 1008.23 1008.22
1026.42 1026.22 1025.98 1025.86 1025.73 1025.42 1025.07 1024.76 1024.43 1024.07 1023.72 1023.17 1022.71 1022.09 1021.56 1021.20 1020.23 1019.76 1019.30 1018.41 1017.69 1017.27 1016.82 1016.72 1016.65 1016.28 1013.89 1011.16 1010.73 1010.50 1010.64 1010.52 1010.47 1009.94 1009.01 1008.63 1008.12 1007.40 1006.75 1006.98 1007.43 1007.16 1008.06 1008.78 1008.84 1008.86 1008.94
1026.36 1026.13 1025.92 1025.76 1025.60 1025.40 1025.12 1024.81 1024.51 1024.09 1023.66 1023.14 1022.63 1021.98 1021.33 1020.90 1020.12 1019.66 1018.68 1017.77 1017.24 1016.83 1016.44 1016.31 1016.42 1015.80 1012.34 1010.77 1010.61 1010.51 1010.37 1010.20 1010.33 1010.02 1009.50 1009.52 1008.73 1008.06 1007.33 1007.92 1008.06 1008.08 1008.21 1008.61 1009.35 1009.45 1009.69
1026.33 1026.10 1025.89 1025.75 1025.58 1025.35 1025.06 1024.77 1024.40 1024.07 1023.66 1023.20 1022.49 1021.93 1021.33 1020.65 1019.81 1019.23 1018.14 1017.30 1016.58 1016.15 1016.15 1015.96 1015.97 1014.54 1010.87 1011.03 1010.70 1010.57 1010.65 1010.06 1010.01 1010.08 1010.01 1009.78 1008.94 1008.28 1008.44 1008.02 1008.06 1008.01 1007.61 1008.18 1008.96 1009.21 1009.59
1026.60 1026.21 1025.92 1025.70 1025.46 1025.25 1024.96 1024.64 1024.29 1023.92 1023.48 1023.02 1022.51 1021.98 1021.32 1020.48 1019.68 1019.06 1017.99 1016.46 1015.49 1015.83 1014.71 1014.81 1013.72 1012.62 1010.59 1010.13 1010.43 1010.60 1010.72 1010.44 1009.99 1010.00 1009.99 1009.70 1009.08 1008.43 1008.19 1007.38 1006.41 1006.55 1006.88 1007.28 1008.22 1008.94 1008.93
1027.15 1026.70 1026.15 1025.74 1025.39 1025.12 1024.86 1024.52 1024.19 1023.89 1023.47 1022.96 1022.44 1021.90 1021.14 1020.39 1019.67 1018.85 1017.99 1015.85 1015.32 1014.98 1013.74 1011.90 1011.25 1010.25 1010.14 1010.12 1010.69 1010.06 1010.36 1010.43 1010.20 1009.92 1009.33 1009.05 1008.81 1007.77 1007.08 1006.77 1005.79 1005.59 1006.04 1007.06 1008.42 1008.91 1009.96
1027.71 1027.19 1026.61 1026.03 1025.54 1025.09 1024.73 1024.45 1024.15 1023.81 1023.41 1022.99 1022.45 1021.81 1021.11 1020.27 1019.44 1018.69 1018.31 1016.19 1015.24 1015.44 1013.38 1011.40 1011.03 1010.07 1009.86 1009.85 1009.88 1009.91 1010.15 1009.98 1009.93 1009.32 1008.87 1008.72 1008.29 1007.87 1007.45 1006.90 1006.25 1005.31 1006.30 1008.20 1009.11 1009.62 1010.63
1028.06 1027.55 1027.06 1026.51 1025.89 1025.48 1024.97 1024.44 1024.11 1023.79 1023.42 1023.06 1022.55 1021.89 1021.13 1020.17 1019.03 1017.96 1016.57 1015.82 1015.43 1015.28 1013.63 1010.58 1010.24 1009.78 1009.97 1010.16 1009.36 1009.64 1009.70 1009.44 1009.20 1008.63 1008.52 1008.14 1008.46 1008.66 1008.05 1007.50 1006.76 1006.22 1007.11 1008.85 1009.43 1009.94 1010.78
1028.34 1027.84 1027.36 1026.88 1026.33 1025.83 1025.33 1024.80 1024.17 1023.73 1023.39 1022.99 1022.61 1022.02 1021.24 1020.28 1019.02 1017.58 1016.26 1015.95 1015.71 1015.86 1013.61 1009.83 1009.56 1008.92 1009.59 1009.46 1009.74 1009.92 1009.77 1009.55 1008.54 1008.06 1008.07 1008.92 1009.55 1009.02 1008.49 1007.95 1007.38 1007.44 1007.88 1008.74 1009.30 1009.56 1010.08
1028.45 1028.05 1027.55 1027.12 1026.59 1026.02 1025.49 1025.04 1024.44 1023.79 1023.33 1022.96 1022.60 1022.21 1021.50 1020.99 1019.96 1017.13 1016.74 1016.49 1016.14 1015.84 1012.90 1008.59 1008.78 1008.63 1008.89 1009.29 1009.49 1009.86 1009.95 1009.59 1008.46 1008.22 1009.11 1009.63 1009.88 1009.52 1009.08 1008.87 1009.28 1009.16 1009.54 1009.49 1009.81 1009.61 1009.80
1028.67 1028.10 1027.59 1027.19 1026.63 1026.13 1025.58 1025.08 1024.58 1024.02 1023.37 1022.86 1022.55 1022.21 1021.80 1019.80 1019.27 1017.72 1017.17 1016.96 1016.38 1015.33 1011.82 1008.62 1008.41 1008.77 1008.83 1009.00 1009.03 1009.58 1009.85 1009.72 1008.66 1009.01 1009.62 1009.94 1010.05 1010.01 1009.61 1010.38 1010.32 1010.62 1010.59 1010.55 1010.38 1010.07 1009.92
1028.60 1028.17 1027.59 1027.02 1026.51 1026.10 1025.61 1025.11 1024.60 1024.07 1023.45 1022.74 1022.38 1022.02 1021.91 1021.12 1018.76 1018.23 1017.80 1016.95 1015.78 1013.67 1009.78 1007.98 1007.86 1008.15 1008.44 1008.52 1008.88 1009.28 1009.38 1009.17 1008.75 1009.04 1009.37 1010.48 1010.78 1011.21 1010.80 1010.90 1011.25 1010.89 1010.65 1010.57 1010.49 1010.00 1009.57
1028.63 1028.10 1027.62 1027.12 1026.49 1026.01 1025.49 1024.98 1024.53 1023.97 1023.39 1022.75 1022.13 1021.73 1020.69 1020.04 1019.23 1018.21 1017.91 1016.65 1014.61 1011.23 1009.03 1007.42 1007.41 1007.88 1007.88 1007.91 1008.43 1008.84 1008.87 1008.61 1008.19 1008.14 1009.01 1009.59 1010.91 1011.12 1011.00 1010.40 1010.42 1010.70 1010.01 1008.97 1009.27 1009.46 1009.75
1028.71 1028.15 1027.61 1027.15 1026.58 1025.99 1025.41 1024.83 1024.30 1023.76 1023.25 1022.71 1021.97 1020.67 1019.15 1018.38 1018.63 1018.73 1017.67 1015.53 1012.65 1010.18 1007.64 1007.04 1007.17 1007.34 1007.52 1007.59 1008.18 1008.67 1008.46 1008.10 1007.88 1007.83 1008.26 1008.58 1009.77 1011.15 1011.19 1010.91 1010.69 1010.08 1010.00 1009.83 1009.65 1009.60 1009.63
1028.74 1028.24 1027.88 1027.23 1026.63 1026.04 1025.40 1024.70 1024.11 1023.37 1023.06 1022.71 1021.84 1020.10 1018.08 1017.43 1017.90 1018.35 1017.12 1014.25 1011.70 1009.48 1007.50 1005.91 1006.39 1006.82 1006.72 1007.06 1008.23 1008.23 1008.02 1007.57 1007.60 1008.15 1008.77 1008.12 1009.80 1011.15 1011.72 1011.74 1011.12 1010.72 1009.99 1010.12 1009.99 1009.48 1009.35
1028.82 1028.30 1027.82 1027.41 1026.81 1026.15 1025.37 1024.63 1024.01 1023.28 1022.89 1022.73 1022.13 1019.35 1017.01 1016.90 1017.82 1017.65 1015.28 1013.44 1011.55 1009.39 1007.63 1006.75 1006.37 1005.96 1006.16 1006.43 1007.53 1007.67 1007.30 1007.81 1008.00 1009.08 1009.65 1008.95 1009.54 1011.25 1011.99 1011.43 1010.48 1010.97 1010.32 1010.15 1009.69 1009.84 1009.58
1028.64 1028.26 1027.66 1027.06 1026.65 1026.12 1025.22 1024.59 1023.88 1023.27 1022.83 1022.58 1021.90 1019.30 1017.19 1017.61 1017.59 1016.13 1014.68 1013.10 1011.41 1009.26 1007.87 1007.32 1006.44 1005.98 1005.82 1005.82 1006.54 1007.01 1006.95 1007.74 1008.76 1009.56 1009.95 1009.69 1009.98 1011.04 1011.13 1010.73 1011.08 1010.14 1009.98 1010.20 1009.96 1010.42 1010.19
1028.44 1027.98 1027.41 1026.86 1026.33 1025.74 1025.19 1024.49 1023.81 1023.18 1022.94 1022.76 1021.34 1019.20 1017.41 1017.61 1016.72 1015.87 1014.77 1013.01 1011.63 1009.78 1008.04 1007.34 1006.42 1006.38 1005.90 1005.57 1006.08 1006.82 1007.31 1008.12 1009.50 1010.13 1009.97 1010.30 1010.47 1010.67 1011.28 1011.75 1011.44 1010.99 1010.47 1010.04 1010.60 1011.25 1010.47
1027.87 1027.47 1026.94 1026.47 1025.99 1025.57 1025.00 1024.27 1023.58 1023.05 1022.66 1022.93 1022.10 1019.22 1017.46 1017.32 1016.48 1015.74 1014.84 1012.97 1011.13 1009.98 1008.64 1007.33 1006.62 1006.73 1006.21 1005.78 1005.79 1006.54 1007.67 1009.58 1010.28 1010.51 1011.04 1011.04 1010.44 1010.30 1010.10 1009.33 1009.93 1010.78 1010.64 1010.90 1011.34 1011.63 1011.15
1027.53 1027.15 1026.68 1026.29 1025.70 1025.42 1024.80 1024.17 1023.57 1023.04 1022.50 1022.63 1021.95 1019.44 1017.35 1016.56 1016.55 1015.73 1014.92 1012.90 1011.20 1009.29 1008.40 1007.31 1006.62 1006.33 1006.27 1005.85 1005.90 1006.54 1008.15 1010.15 1011.11 1011.82 1011.75 1011.79 1010.83 1010.58 1010.80 1010.42 1010.14 1010.41 1010.48 1010.89 1011.12 1011.50 1011.57
1026.95 1026.64 1026.27 1025.86 1025.36 1024.98 1024.61 1024.09 1023.40 1023.11 1022.63 1022.19 1021.57 1020.62 1018.58 1016.61 1015.48 1014.79 1014.07 1012.53 1011.04 1009.22 1007.99 1006.88 1006.36 1006.29 1006.10 1005.86 1005.74 1006.43 1007.99 1009.81 1010.43 1012.01 1012.03 1011.94 1011.40 1011.32 1011.73 1011.67 1011.31 1010.72 1010.59 1010.73 1010.98 1011.17 1011.57
1026.36 1025.95 1025.63 1025.31 1024.90 1024.50 1024.21 1023.88 1023.33 1023.05 1022.89 1022.01 1021.05 1020.99 1020.81 1017.83 1015.72 1014.24 1013.00 1012.12 1010.70 1010.17 1007.87 1006.57 1006.36 1006.17 1005.80 1005.57 1005.96 1006.59 1008.21 1009.78 1010.03 1010.92 1011.28 1011.68 1011.54 1011.94 1012.21 1012.18 1012.18 1011.81 1010.61 1010.29 1010.33 1010.63 1010.97
1025.57 1025.19 1024.88 1024.59 1024.29 1023.88 1023.55 1023.28 1022.92 1022.67 1022.60 1022.42 1021.56 1020.79 1019.85 1017.60 1016.02 1013.81 1012.65 1011.88 1010.70 1009.57 1008.08 1006.35 1006.29 1005.87 1005.84 1006.18 1006.35 1007.38 1008.87 1009.90 1010.10 1010.77 1010.94 1011.26 1011.73 1012.13 1012.32 1012.74 1012.22 1009.76 1009.37 1009.85 1009.72 1009.94 1010.37
1024.68 1024.46 1024.17 1023.80 1023.48 1023.17 1022.91 1022.57 1022.22 1021.99 1021.71 1021.49 1021.24 1020.85 1019.20 1017.67 1016.44 1013.54 1012.17 1010.78 1010.00 1009.36 1008.04 1006.61 1005.43 1005.52 1006.47 1006.70 1007.84 1009.25 1010.25 1010.67 1010.51 1010.61 1010.71 1011.04 1011.26 1012.23 1012.48 1012.20 1010.55 1009.65 1009.29 1009.17 1009.08 1009.31 1009.76
1023.78 1023.54 1023.18 1022.91 1022.74 1022.35 1022.06 1021.69 1021.35 1021.05 1020.90 1020.61 1020.20 1019.75 1019.12 1017.59 1015.18 1015.62 1012.92 1010.55 1009.50 1008.72 1008.16 1006.65 1005.65 1005.62 1006.45 1007.29 1008.94 1009.97 1009.90 1009.89 1010.26 1010.56 1010.70 1011.02 1011.14 1012.40 1012.30 1011.48 1009.97 1008.39 1008.39 1008.94 1009.08 1009.13 1009.08
1022.87 1022.46 1022.24 1022.06 1021.70 1021.39 1021.07 1020.75 1020.37 1020.10 1019.90 1019.63 1018.89 1019.14 1017.75 1016.46 1014.95 1014.86 1013.85 1011.15 1009.50 1008.58 1007.60 1006.70 1005.61 1006.07 1006.44 1007.02 1008.94 1009.12 1008.34 1008.62 1008.87 1009.06 1009.93 1010.55 1011.18 1011.65 1012.12 1011.28 1009.47 1008.17 1008.69 1009.16 1009.54 1008.78 1008.47
1021.76 1021.45 1021.13 1020.91 1020.77 1020.34 1020.04 1019.71 1019.36 1018.98 1018.60 1018.41 1017.29 1017.60 1016.16 1015.53 1013.91 1014.01 1012.59 1011.73 1008.79 1008.12 1007.67 1006.46 1006.48 1006.41 1006.78 1007.15 1008.20 1007.96 1006.61 1006.72 1007.35 1007.75 1008.29 1009.07 1010.30 1010.90 1011.21 1010.55 1009.19 1007.83 1008.92 1008.87 1008.71 1008.79 1009.08
1020.54 1020.26 1019.96 1019.73 1019.48 1019.16 1018.83 1018.52 1018.18 1017.72 1017.23 1017.07 1016.19 1016.07 1014.26 1014.69 1013.14 1012.46 1011.39 1010.43 1007.91 1008.14 1009.20 1006.71 1005.59 1005.46 1005.51 1006.44 1006.98 1006.95 1006.11 1005.46 1005.89 1006.88 1007.92 1007.92 1007.14 1007.97 1008.51 1007.80 1007.24 1007.11 1007.90 1008.49 1008.89 1009.46 1010.20
Wind_Speed
10 11 13 13 13 14 14 15 16 17 17 18 20 20 21 23 22 22 22 21 22 22 21 18 15 13 9 8 9 8 3 9 11 11 11 11 12 12 14 13 6 10 11 8 5 8 7
10 11 13 13 11 13 15 15 15 17 18 18 19 20 22 23 23 23 23 22 22 23 20 16 11 9 7 13 4 2 5 7 7 10 10 10 11 10 9 3 8 10 12 7 3 7 2
11 12 12 11 13 13 13 15 16 16 18 19 20 19 21 24 24 24 23 23 22 22 20 14 9 8 10 10 1 6 1 3 5 11 7 7 11 8 2 5 3 7 14 8 3 6 2
13 13 14 10 11 13 14 14 15 16 18 20 21 20 19 22 23 24 24 23 22 22 19 14 7 10 8 3 7 1 5 4 5 6 5 6 8 10 6 8 7 10 11 7 5 6 3
16 14 14 11 11 12 13 14 14 16 18 20 21 21 21 22 22 26 25 26 23 20 15 10 7 11 9 6 7 1 5 4 2 3 3 5 6 5 3 12 11 14 12 12 7 10 8
21 18 16 15 14 13 13 14 13 15 15 19 22 22 22 22 22 25 28 27 14 9 10 10 14 9 7 7 5 3 3 5 4 7 7 8 7 7 10 13 13 15 17 17 10 12 10
22 24 21 18 17 14 15 15 14 15 16 17 20 23 23 23 24 23 18 8 5 7 12 8 7 10 5 5 6 4 4 6 6 6 9 11 9 12 17 17 18 19 17 16 11 17 20
22 23 23 24 21 19 17 16 15 14 17 18 18 21 24 24 25 25 10 8 8 5 9 15 12 8 2 3 5 4 7 9 7 11 12 9 14 6 5 1 9 8 17 17 10 17 18
21 22 23 24 24 24 23 20 17 14 15 17 18 20 23 26 27 13 8 6 8 11 8 11 14 14 10 10 4 6 7 11 9 10 12 13 10 2 4 5 10 8 17 17 18 11 19
23 23 21 22 23 23 24 25 22 17 15 15 16 17 19 27 10 12 6 8 9 8 7 12 11 7 8 6 6 1 5 7 4 13 8 7 4 6 8 11 8 10 4 16 20 18 16
21 21 22 23 22 23 23 24 24 23 17 15 15 17 18 18 11 6 10 10 7 4 5 16 14 7 12 10 10 8 4 4 8 8 3 6 8 10 13 8 5 7 4 8 16 16 10
21 21 21 23 23 23 23 23 23 23 22 15 14 15 17 12 7 10 10 11 6 2 8 9 12 10 12 14 8 8 9 7 5 6 6 10 4 2 5 7 4 12 9 6 9 9 8
22 23 21 21 22 23 24 23 23 23 23 19 14 16 14 11 6 13 9 6 4 6 6 11 12 13 17 12 12 9 11 12 8 11 15 8 7 2 8 12 6 12 15 7 8 7 8
21 21 22 22 22 24 23 22 22 22 22 23 15 17 13 11 12 9 7 6 9 10 17 6 10 14 18 15 13 12 13 14 16 14 14 12 6 11 12 7 7 16 17 3 7 11 10
22 23 24 23 23 24 23 23 25 22 20 22 15 11 9 7 9 7 8 10 9 10 15 15 11 13 17 16 11 14 16 16 14 17 9 15 8 8 7 4 9 13 7 4 2 2 7
22 23 24 24 25 26 26 24 26 21 20 20 7 12 13 11 7 7 10 13 14 18 16 14 17 16 20 19 11 14 15 15 16 12 1 2 8 10 6 5 6 6 3 5 4 4 5
23 22 22 24 24 27 26 26 25 22 17 18 5 7 4 9 7 9 11 11 20 20 13 10 16 15 18 16 17 18 13 5 9 9 9 2 6 9 8 11 13 6 6 5 4 3 5
22 23 24 24 24 25 27 27 26 23 15 6 4 4 4 4 8 6 12 21 14 19 19 15 18 24 14 19 19 18 18 11 10 12 9 3 5 8 14 6 6 10 12 11 5 7 4
23 24 24 25 25 25 26 26 25 22 14 5 4 6 6 5 7 10 12 24 25 23 23 16 16 14 15 17 15 19 18 10 13 13 11 8 6 9 5 3 6 6 8 9 2 2 9
23 24 25 26 25 25 26 25 24 24 17 5 5 4 7 7 10 16 18 22 24 21 26 21 16 15 14 18 14 14 12 8 12 10 7 3 7 8 7 2 13 12 15 12 9 3 3
23 23 23 25 23 25 25 25 24 24 21 5 3 5 7 5 9 16 19 16 23 26 22 18 19 20 17 15 16 13 15 12 12 4 6 4 6 7 2 4 8 14 16 15 14 8 6
22 23 23 24 23 23 24 25 23 23 23 5 5 5 10 13 16 19 22 20 27 23 25 25 21 20 17 16 17 15 15 17 12 10 13 6 6 8 5 4 1 8 11 16 16 15 11
23 23 23 23 25 24 23 23 23 22 17 4 4 9 6 11 20 19 16 26 22 24 25 25 22 17 19 20 13 11 15 15 7 13 14 11 8 9 6 8 3 5 17 17 15 17 14
23 23 23 23 23 25 24 24 23 24 18 6 6 8 7 16 18 18 25 23 26 29 26 23 19 21 16 13 6 12 14 14 8 14 12 12 12 7 6 9 5 5 6 21 17 15 15
24 23 24 24 23 24 25 25 24 25 26 9 8 7 6 12 18 25 28 26 23 24 29 25 20 16 12 15 13 9 5 5 12 16 15 13 9 3 5 10 2 7 7 7 15 15 14
24 24 24 23 24 24 25 25 25 26 28 14 7 9 6 7 21 29 29 24 16 14 19 26 18 11 17 11 6 7 10 9 11 11 13 13 9 6 5 4 8 2 12 7 9 9 14
27 25 24 25 25 25 25 26 26 28 29 15 8 15 9 9 15 19 20 21 16 19 13 18 12 17 16 9 5 6 9 15 13 17 19 12 9 9 6 5 6 13 14 11 8 3 14
27 26 25 25 27 26 26 27 27 29 30 18 9 15 13 8 19 23 28 28 20 12 11 10 9 12 11 9 8 7 6 11 9 15 21 13 12 8 10 7 9 18 16 12 6 6 10
27 27 26 26 26 27 27 28 29 30 31 24 10 12 13 9 12 13 23 31 24 8 2 11 9 18 8 6 6 6 4 7 12 11 18 10 10 10 12 8 4 20 9 10 10 12 10
Wind_Direction
351 357 356 350 343 342 340 348 343 343 340 342 342 341 341 336 333 334 335 327 323 320 315 308 304 305 287 217 254 130 214 255 264 268 262 247 246 242 238 208 174 244 107 104 107 89 43
346 348 350 351 347 338 341 342 340 340 337 341 339 340 342 333 333 336 329 322 320 317 313 305 299 302 250 244 45 350 351 293 269 276 259 249 249 260 308 229 207 135 125 100 81 99 63
342 338 338 336 341 340 340 341 340 339 339 339 337 338 341 332 336 329 322 322 319 312 306 293 289 265 257 251 352 345 220 301 288 287 267 306 303 239 186 61 1 136 130 102 44 168 103
337 331 332 330 333 337 335 335 337 343 342 339 335 336 340 332 334 323 322 320 314 306 297 278 276 262 268 80 335 286 292 209 235 255 305 297 257 275 205 106 154 187 176 180 131 170 148
352 340 340 334 322 321 328 336 338 341 340 340 336 334 336 332 333 323 323 314 304 293 272 269 264 220 250 117 218 99 293 267 198 235 253 267 272 203 205 179 179 199 197 179 131 187 159
6 356 352 340 329 314 320 327 337 335 341 343 340 336 334 332 329 325 325 300 284 312 239 249 254 236 202 219 102 241 168 246 236 182 199 210 212 198 211 209 196 194 228 166 132 168 139
10 9 2 349 345 326 318 323 329 330 332 338 340 336 335 331 326 324 334 326 211 206 229 229 289 246 126 102 187 197 175 198 209 239 218 202 212 205 202 212 241 289 198 105 136 125 120
4 5 2 3 353 340 331 323 326 326 328 331 338 338 334 328 321 317 300 281 44 329 292 227 262 279 9 213 176 174 187 211 198 218 220 178 228 74 16 306 240 192 127 129 120 132 129
2 360 357 357 360 1 352 333 325 322 323 325 331 337 334 326 318 296 279 3 327 345 256 197 216 224 196 211 222 144 229 210 215 224 202 206 103 128 176 201 210 166 142 154 169 184 136
2 1 356 351 353 355 355 353 337 320 318 319 325 331 334 330 296 335 283 1 346 337 274 193 196 219 167 210 206 311 299 299 249 196 143 78 118 172 190 187 224 129 113 180 165 177 164
357 353 353 351 352 351 348 346 345 343 313 312 319 325 330 324 304 307 358 334 305 269 284 137 164 111 175 192 123 172 193 237 228 108 73 125 173 193 203 110 357 148 138 150 174 198 158
350 348 353 348 348 347 348 343 339 339 336 305 310 315 327 321 285 277 339 312 282 245 243 188 145 192 175 212 209 124 182 238 311 142 209 151 167 239 119 93 343 137 151 176 196 220 230
348 345 346 345 344 343 339 343 340 334 333 321 300 299 300 295 276 336 321 263 205 194 250 182 188 191 197 186 187 184 182 191 172 179 151 142 182 97 142 136 160 185 169 149 192 184 238
346 339 341 342 342 342 334 337 337 331 328 330 296 295 283 270 278 308 281 221 218 223 242 74 186 195 203 187 196 198 189 197 220 209 161 181 180 168 203 211 186 209 204 220 200 200 150
344 343 344 345 341 345 335 336 331 323 322 329 301 281 272 254 217 252 242 219 209 225 206 235 194 195 208 193 213 202 213 210 189 218 192 201 121 104 188 240 288 177 225 321 263 239 160
347 346 346 346 343 341 342 336 333 325 320 329 291 295 272 239 177 228 233 228 228 248 287 196 205 203 204 194 194 198 200 214 195 213 291 294 122 184 152 261 256 274 182 186 242 203 208
342 339 342 339 339 338 338 339 338 329 322 326 286 280 65 139 171 223 222 231 233 255 269 248 230 220 224 193 195 198 200 158 165 180 246 210 127 155 153 209 187 183 205 238 273 320 238
342 337 336 336 336 335 336 337 341 332 326 316 276 254 120 188 209 241 231 226 242 239 242 257 259 238 220 218 197 218 224 177 176 184 198 151 210 162 196 82 346 254 207 203 215 183 245
338 332 338 334 332 334 334 334 338 333 322 309 260 265 199 205 234 232 268 235 246 254 251 235 243 240 243 246 191 224 212 121 157 185 196 154 167 158 183 227 214 232 226 200 92 302 211
329 332 334 336 332 335 332 333 338 341 321 255 287 265 228 215 243 250 226 249 238 236 254 244 242 241 232 245 174 208 145 156 165 185 34 87 213 192 206 185 154 195 200 204 174 192 234
322 326 330 330 332 331 331 333 339 342 333 238 214 268 233 212 240 241 259 249 237 237 227 249 222 236 218 219 184 216 145 158 188 125 163 242 223 202 64 49 161 183 190 190 199 199 193
314 318 324 326 325 326 329 332 335 340 336 255 251 258 257 264 256 223 232 248 243 244 233 226 224 225 209 224 205 200 164 176 177 167 184 222 198 183 174 167 193 197 202 195 209 205 206
310 311 315 322 320 321 324 327 330 330 340 282 227 257 261 302 254 244 234 229 246 246 255 234 229 229 220 220 214 226 167 180 192 168 183 171 161 158 205 182 160 271 228 216 211 213 213
300 303 308 312 318 314 316 319 323 322 316 296 294 265 263 269 266 246 245 242 236 247 249 250 224 217 234 238 156 113 147 189 178 178 181 180 171 183 146 140 215 183 140 211 219 216 210
296 302 301 305 309 311 314 309 309 313 308 294 298 263 219 260 286 243 239 240 242 229 249 249 221 238 176 131 119 110 142 161 194 186 183 199 176 158 157 201 317 185 193 189 190 220 205
294 294 296 301 305 304 306 307 305 305 303 298 281 263 250 243 248 256 278 253 247 236 236 252 241 166 158 144 107 176 181 178 180 180 186 203 192 156 195 204 206 270 148 170 187 236 201
288 288 294 294 293 300 301 304 302 301 298 294 283 281 228 251 251 254 265 267 239 254 227 245 155 167 176 166 141 197 196 175 172 176 183 181 187 193 188 226 268 138 143 151 162 215 170
285 285 284 288 293 296 301 300 300 297 295 299 284 287 209 234 255 253 260 267 244 255 243 197 147 186 202 181 174 220 214 181 166 173 173 166 166 187 199 202 235 149 148 177 141 121 129
283 283 284 285 287 292 297 297 297 294 293 296 292 289 204 218 262 272 273 261 257 238 316 197 201 181 178 175 201 216 232 168 169 166 178 198 191 164 193 200 246 156 151 150 143 132 135